Messages
logo

Welcome to Perpetual Archive, a project to automatically archive and share YouTube Channels at maximum quality, as an alternative to incremental torrents.


Site Feedback Survey, Greatly Appreciated


Over 2TB Of Downloads!

Folder
Up
0 folders, 306 files, 21.6 MBytes
Select

0 items selected

Actions
Get list
Server information Server time: 2/21/2019 1:34:10 PM Server uptime: (26 days) 11:33:25

Have a channel request, link to something I'm missing, or takedown request?


Contact Me Here

Want to donate to the project to help buy more storage or pay for power?


BTC:

1Gm74eQn7yeqJsyHS6fuM1gizjgsyPhAqY

BCH:

1NSkY7dRkqsyTS8isWa1Q7cXERHFJgy7Rn

LTC:

LSFFFrq4FDXy7Sbjeq1gxnuq686HKdJMa4

Name.extension Size Timestamp Hits
20120319 - Photonicinduction.description 357B10/24/2018 2:18:25 AM5
20120319 - Photonicinduction.jpg 48.3 KB10/24/2018 2:18:25 AM0
20120321 - Erase CD with HV + DVD.description 355B10/24/2018 2:18:11 AM6
20120321 - Erase CD with HV + DVD.jpg 31.1 KB10/24/2018 2:18:11 AM0
20120323 - Bonkers Conkers.description 108B10/24/2018 2:16:47 AM5
20120323 - Bonkers Conkers.jpg 58.4 KB10/24/2018 2:16:48 AM0
20120323 - Fastest Kettle Boil + Pop.description 126B10/24/2018 2:17:17 AM4
20120323 - Fastest Kettle Boil + Pop.jpg 49.5 KB10/24/2018 2:17:18 AM0
20120323 - Over Current On Industrial Fuse.description 90B10/24/2018 2:17:48 AM4
20120323 - Over Current On Industrial Fuse.jpg 92.3 KB10/24/2018 2:17:48 AM0
20120323 - Photonicinduction Makes Cake.description 218B10/24/2018 2:17:54 AM3
20120323 - Photonicinduction Makes Cake.jpg 166.5 KB10/24/2018 2:17:55 AM1
20120323 - TV Assisted Suicide.description 106B10/24/2018 2:17:12 AM3
20120323 - TV Assisted Suicide.jpg 90.3 KB10/24/2018 2:17:12 AM0
20120324 - Big Boys Power Supply.description 112B10/24/2018 2:16:17 AM6
20120324 - Big Boys Power Supply.jpg 64.8 KB10/24/2018 2:16:17 AM1
20120324 - Coconuts Explode Using Electricity.description 116B10/24/2018 2:15:30 AM4
20120324 - Coconuts Explode Using Electricity.jpg 98.5 KB10/24/2018 2:15:30 AM1
20120324 - Computer and TV Microwaved While On.description 125B10/24/2018 2:14:56 AM4
20120324 - Computer and TV Microwaved While On.jpg 98.3 KB10/24/2018 2:14:56 AM1
20120324 - Electric Wheelchair Mayhem.description 110B10/24/2018 2:15:22 AM3
20120324 - Electric Wheelchair Mayhem.jpg 68.0 KB10/24/2018 2:15:22 AM1
20120324 - Health And Safety Common Sense.description 106B10/24/2018 2:15:14 AM5
20120324 - Health And Safety Common Sense.jpg 50.3 KB10/24/2018 2:15:14 AM0
20120324 - Vacuum Cleaner Sucks Up Petrol.description 116B10/24/2018 2:15:54 AM5
20120324 - Vacuum Cleaner Sucks Up Petrol.jpg 139.0 KB10/24/2018 2:15:54 AM0
20120325 - Extreme Marbles.description 97B10/24/2018 2:14:48 AM4
20120325 - Extreme Marbles.jpg 56.4 KB10/24/2018 2:14:49 AM0
20120326 - Computer Skills.description 108B10/24/2018 2:14:14 AM4
20120326 - Computer Skills.jpg 106.1 KB10/24/2018 2:14:14 AM1
20120326 - HD and Motor Speaker.description 90B10/24/2018 2:13:57 AM5
20120326 - HD and Motor Speaker.jpg 52.8 KB10/24/2018 2:13:57 AM0
20120326 - Too Much Current + Electric Meter Pops.description 141B10/24/2018 2:14:28 AM3
20120326 - Too Much Current + Electric Meter Pops.jpg 60.5 KB10/24/2018 2:14:29 AM0
20120326 - Ultra High Energy Destruction + Can Crush.description 138B10/24/2018 2:13:38 AM5
20120326 - Ultra High Energy Destruction + Can Crush.jpg 62.6 KB10/24/2018 2:13:38 AM0
20120327 - Clothes Iron Meltdown.description 105B10/24/2018 2:12:22 AM3
20120327 - Clothes Iron Meltdown.jpg 73.5 KB10/24/2018 2:12:23 AM0
20120328 - 12 kW Halide Lamp.description 187B10/24/2018 2:11:08 AM9
20120328 - 12 kW Halide Lamp.jpg 134.9 KB10/24/2018 2:11:08 AM1
20120328 - 300Kv On A Television.description 104B10/24/2018 2:10:13 AM5
20120328 - 300Kv On A Television.jpg 55.1 KB10/24/2018 2:10:13 AM0
20120328 - Cheap Backup Power.description 118B10/24/2018 2:10:38 AM4
20120328 - Cheap Backup Power.jpg 179.6 KB10/24/2018 2:10:38 AM0
20120330 - Camcorder And Lamp In Microwave.description 135B10/24/2018 2:09:19 AM5
20120330 - Camcorder And Lamp In Microwave.jpg 71.8 KB10/24/2018 2:09:20 AM0
20120330 - Extreme Speed Electric Motors.description 151B10/24/2018 2:09:54 AM3
20120330 - Extreme Speed Electric Motors.jpg 65.5 KB10/24/2018 2:09:54 AM1
20120330 - Fun With Arc Lamps.description 124B10/24/2018 2:08:29 AM5
20120330 - Fun With Arc Lamps.jpg 48.4 KB10/24/2018 2:08:30 AM0
20120330 - Naughty Boy's Electromagnet.description 111B10/24/2018 2:09:32 AM4
20120330 - Naughty Boy's Electromagnet.jpg 98.0 KB10/24/2018 2:09:33 AM0
20120331 - Corona Wind.description 89B10/24/2018 2:08:20 AM4
20120331 - Corona Wind.jpg 95.8 KB10/24/2018 2:08:21 AM1
20120402 - 200KV On A Grow Lamp.description 128B10/24/2018 2:07:04 AM7
20120402 - 200KV On A Grow Lamp.jpg 54.3 KB10/24/2018 2:07:04 AM0
20120402 - 240v-440v.description 116B10/24/2018 2:06:32 AM6
20120402 - 240v-440v.jpg 70.9 KB10/24/2018 2:06:32 AM1
20120402 - Bigger Variac and Load Test.description 136B10/24/2018 2:07:39 AM4
20120402 - Bigger Variac and Load Test.jpg 40.4 KB10/24/2018 2:07:39 AM0
20120402 - Variac Overdrive.description 114B10/24/2018 2:07:55 AM7
20120402 - Variac Overdrive.jpg 49.5 KB10/24/2018 2:07:55 AM0
20120403 - Creme Eggs Shoot Their Goo.description 270B10/24/2018 2:06:26 AM4
20120403 - Creme Eggs Shoot Their Goo.jpg 34.7 KB10/24/2018 2:06:26 AM0
20120409 - 50,000 Amp Transformer Completed.description 365B10/24/2018 2:05:21 AM4
20120409 - 50,000 Amp Transformer Completed.jpg 45.4 KB10/24/2018 2:05:21 AM1
20120409 - Building A Monster High Current Transformer.description 195B10/24/2018 2:05:36 AM4
20120409 - Building A Monster High Current Transformer.jpg 76.0 KB10/24/2018 2:05:36 AM1
20120409 - Extreme Speed Record Player.description 152B10/24/2018 2:04:49 AM2
20120409 - Extreme Speed Record Player.jpg 50.0 KB10/24/2018 2:04:50 AM0
20120409 - Plasma Ball Overload.description 117B10/24/2018 2:04:59 AM6
20120409 - Plasma Ball Overload.jpg 63.9 KB10/24/2018 2:04:59 AM0
20120410 - Light Switch and MCB Explode.description 99B10/24/2018 2:04:34 AM3
20120410 - Light Switch and MCB Explode.jpg 54.9 KB10/24/2018 2:04:34 AM0
20120411 - Random Smash and Bangs.description 181B10/24/2018 2:04:04 AM9
20120411 - Random Smash and Bangs.jpg 103.5 KB10/24/2018 2:04:05 AM0
20120412 - Light Bulb Overload Remix.description 207B10/24/2018 2:03:51 AM4
20120412 - Light Bulb Overload Remix.jpg 107.8 KB10/24/2018 2:03:51 AM0
20120414 - CRT Overdrive.description 90B10/24/2018 2:02:42 AM6
20120414 - CRT Overdrive.jpg 174.6 KB10/24/2018 2:02:42 AM1
20120414 - Hair Dryer Combustion Test.description 98B10/24/2018 2:03:25 AM3
20120414 - Hair Dryer Combustion Test.jpg 104.4 KB10/24/2018 2:03:25 AM0
20120414 - Mad Science 500 keV.description 130B10/24/2018 2:02:49 AM8
20120414 - Mad Science 500 keV.jpg 81.8 KB10/24/2018 2:02:50 AM1
20120414 - Triple Pop.description 142B10/24/2018 2:02:04 AM5
20120414 - Triple Pop.jpg 92.9 KB10/24/2018 2:02:04 AM0
20120414 - Vibrator Overvolt.description 74B10/24/2018 2:03:05 AM5
20120414 - Vibrator Overvolt.jpg 120.1 KB10/24/2018 2:03:05 AM0
20120415 - Argon Laser Meltdown.description 99B10/24/2018 2:01:40 AM4
20120415 - Argon Laser Meltdown.jpg 171.0 KB10/24/2018 2:01:41 AM1
20120415 - Ignition Tests With Lasers & HV.description 136B10/24/2018 2:01:07 AM4
20120415 - Ignition Tests With Lasers & HV.jpg 56.8 KB10/24/2018 2:01:07 AM1
20120416 - If Photon Made Adverts.description 107B10/24/2018 2:00:43 AM6
20120416 - If Photon Made Adverts.jpg 106.2 KB10/24/2018 2:00:43 AM0
20120416 - Photon Bonding With The Neighbours.description 140B10/24/2018 2:00:49 AM3
20120416 - Photon Bonding With The Neighbours.jpg 96.9 KB10/24/2018 2:00:49 AM0
20120417 - Leaf Blower Fun + Weather Balloon Pop.description 111B10/24/2018 2:00:36 AM3
20120417 - Leaf Blower Fun + Weather Balloon Pop.jpg 123.4 KB10/24/2018 2:00:36 AM0
20120417 - Phone & Helicopter Zap.description 102B10/24/2018 2:00:28 AM4
20120417 - Phone & Helicopter Zap.jpg 75.9 KB10/24/2018 2:00:28 AM0
20120418 - Big Capacitor Safety.description 101B10/24/2018 2:00:04 AM5
20120418 - Big Capacitor Safety.jpg 112.5 KB10/24/2018 2:00:04 AM0
20120427 - 75w HID Torch.description 96B10/24/2018 1:59:32 AM6
20120427 - 75w HID Torch.jpg 251.2 KB10/24/2018 1:59:32 AM0
20120501 - Motor Inverters.description 96B10/24/2018 1:59:00 AM5
20120501 - Motor Inverters.jpg 146.0 KB10/24/2018 1:59:01 AM1
20120502 - Arc Welders.description 133B10/24/2018 1:58:34 AM6
20120502 - Arc Welders.jpg 100.9 KB10/24/2018 1:58:34 AM1
20120502 - Car Battery Test.description 165B10/24/2018 1:58:22 AM3
20120502 - Car Battery Test.jpg 238.9 KB10/24/2018 1:58:22 AM1
20120505 - Fire And Ice.description 95B10/24/2018 1:56:33 AM4
20120505 - Fire And Ice.jpg 148.3 KB10/24/2018 1:56:33 AM1
20120505 - Food Mixer Burn Out.description 94B10/24/2018 1:57:40 AM2
20120505 - Food Mixer Burn Out.jpg 113.0 KB10/24/2018 1:57:40 AM0
20120505 - Hot Potential Divider.description 101B10/24/2018 1:56:56 AM3
20120505 - Hot Potential Divider.jpg 133.0 KB10/24/2018 1:56:56 AM0
20120505 - Old Rectifiers.description 100B10/24/2018 1:57:59 AM6
20120505 - Old Rectifiers.jpg 63.2 KB10/24/2018 1:57:59 AM0
20120506 - 1100 Amp Extreme MOT.description 124B10/24/2018 1:54:42 AM5
20120506 - 1100 Amp Extreme MOT.jpg 171.2 KB10/24/2018 1:54:42 AM0
20120506 - Clock Radio And Toy Rabbit Pop.description 84B10/24/2018 1:55:12 AM7
20120506 - Clock Radio And Toy Rabbit Pop.jpg 202.6 KB10/24/2018 1:55:12 AM0
20120506 - Dishwasher Problems.description 73B10/24/2018 1:55:27 AM4
20120506 - Dishwasher Problems.jpg 184.9 KB10/24/2018 1:55:27 AM0
20120506 - Extreme Toaster And Egg Tests.description 83B10/24/2018 1:56:07 AM4
20120506 - Extreme Toaster And Egg Tests.jpg 127.0 KB10/24/2018 1:56:07 AM1
20120507 - Electronics Overloaded.description 229B10/24/2018 1:54:33 AM4
20120507 - Electronics Overloaded.jpg 137.0 KB10/24/2018 1:54:33 AM0
20120507 - Hot Wire Foam Cutter.description 74B10/24/2018 1:54:12 AM4
20120507 - Hot Wire Foam Cutter.jpg 108.2 KB10/24/2018 1:54:12 AM0
20120509 - Monster Jacob's Ladder 200,000 Volts.description 272B10/24/2018 1:53:32 AM5
20120509 - Monster Jacob's Ladder 200,000 Volts.jpg 184.3 KB10/24/2018 1:53:32 AM0
20120511 - Heating Elements Pop On 440v.description 100B10/24/2018 1:53:12 AM4
20120511 - Heating Elements Pop On 440v.jpg 214.7 KB10/24/2018 1:53:13 AM0
20120512 - Photon Meets TheManLab7.description 122B10/24/2018 1:52:44 AM4
20120512 - Photon Meets TheManLab7.jpg 131.5 KB10/24/2018 1:52:44 AM0
20120515 - Big Battery Hack.description 150B10/24/2018 1:51:46 AM7
20120515 - Big Battery Hack.jpg 186.9 KB10/24/2018 1:51:46 AM0
20120515 - Cordless Drill Battery Fix.description 80B10/24/2018 1:51:22 AM3
20120515 - Cordless Drill Battery Fix.jpg 218.5 KB10/24/2018 1:51:23 AM1
20120515 - High Voltage Naughty Boy Time.description 222B10/24/2018 1:52:17 AM3
20120515 - High Voltage Naughty Boy Time.jpg 144.2 KB10/24/2018 1:52:17 AM0
20120516 - Hot Induction Loop.description 72B10/24/2018 1:50:55 AM8
20120516 - Hot Induction Loop.jpg 128.3 KB10/24/2018 1:50:56 AM0
20120521 - Easy Coil Gun + Melon Pop.description 79B10/24/2018 1:50:39 AM2
20120521 - Easy Coil Gun + Melon Pop.jpg 82.3 KB10/24/2018 1:50:39 AM1
20120613 - 5000 Amp Fuse + Tools Melt With High Current.description 204B10/24/2018 1:50:25 AM4
20120613 - 5000 Amp Fuse + Tools Melt With High Current.jpg 168.2 KB10/24/2018 1:50:25 AM0
20120615 - What Were Those 3 Dots .description 78B10/24/2018 1:49:34 AM4
20120615 - What Were Those 3 Dots .jpg 97.9 KB10/24/2018 1:49:34 AM0
20120709 - Air Ioniser Up In Flames.description 78B10/24/2018 1:49:23 AM2
20120709 - Air Ioniser Up In Flames.jpg 196.2 KB10/24/2018 1:49:24 AM1
20120719 - More Washing Machine Madness.description 123B10/24/2018 1:49:09 AM2
20120719 - More Washing Machine Madness.jpg 130.7 KB10/24/2018 1:49:09 AM0
20120727 - Photon's Thunderstorm Capacitor.description 131B10/24/2018 1:48:47 AM4
20120727 - Photon's Thunderstorm Capacitor.jpg 73.9 KB10/24/2018 1:48:47 AM0
20120805 - The Ultimate Fly Killer.description 176B10/24/2018 1:48:40 AM7
20120805 - The Ultimate Fly Killer.jpg 161.6 KB10/24/2018 1:48:40 AM1
20121013 - Selenium Carbon Arc Rectifier.description 83B10/24/2018 1:47:59 AM3
20121013 - Selenium Carbon Arc Rectifier.jpg 58.8 KB10/24/2018 1:47:59 AM0
20121028 - Kent Motor Tug Trip.description 109B10/24/2018 1:47:13 AM5
20121028 - Kent Motor Tug Trip.jpg 157.6 KB10/24/2018 1:47:13 AM0
20121102 - Useful Contactor and Delay.description 92B10/24/2018 1:46:58 AM3
20121102 - Useful Contactor and Delay.jpg 39.5 KB10/24/2018 1:46:58 AM0
20121106 - Inside A Miele 6055 Washing Machine.description 89B10/24/2018 1:46:29 AM3
20121106 - Inside A Miele 6055 Washing Machine.jpg 119.5 KB10/24/2018 1:46:29 AM0
20121118 - State Of Matter.description 938B10/24/2018 1:46:00 AM6
20121118 - State Of Matter.jpg 86.8 KB10/24/2018 1:46:00 AM1
20121123 - Exposed Free Energy Magnet Motor.description 376B10/24/2018 1:45:33 AM4
20121123 - Exposed Free Energy Magnet Motor.jpg 44.5 KB10/24/2018 1:45:33 AM0
20130219 - High Voltage With High Current.description 129B10/24/2018 1:45:05 AM5
20130219 - High Voltage With High Current.jpg 143.8 KB10/24/2018 1:45:06 AM0
20130220 - Huge Light Bulb.description 297B10/24/2018 1:44:51 AM6
20130220 - Huge Light Bulb.jpg 153.7 KB10/24/2018 1:44:51 AM0
20130222 - The Original Washing Machine Self Destructs.description 104B10/24/2018 1:44:45 AM6
20130222 - The Original Washing Machine Self Destructs.jpg 175.4 KB10/24/2018 1:44:46 AM1
20130305 - Extreme Dyson Test.description 231B10/24/2018 1:44:05 AM5
20130305 - Extreme Dyson Test.jpg 230.2 KB10/24/2018 1:44:05 AM1
20130319 - Generating X rays.description 71B10/24/2018 1:43:50 AM6
20130319 - Generating X rays.jpg 171.0 KB10/24/2018 1:43:50 AM0
20130320 - Camera Rotor Test.description 113B10/24/2018 1:42:46 AM6
20130320 - Camera Rotor Test.jpg 134.6 KB10/24/2018 1:42:46 AM0
20130320 - Christmas Lights Overload.description 79B10/24/2018 1:43:11 AM4
20130320 - Christmas Lights Overload.jpg 284.3 KB10/24/2018 1:43:12 AM0
20130320 - Current Cake.description 66B10/24/2018 1:43:31 AM8
20130320 - Current Cake.jpg 138.6 KB10/24/2018 1:43:31 AM1
20130321 - Death Wand On Circuit Board.description 112B10/24/2018 1:42:31 AM6
20130321 - Death Wand On Circuit Board.jpg 245.0 KB10/24/2018 1:42:32 AM0
20130330 - BoomBoxDeluxe Visits Mr Photon.description 458B10/24/2018 1:41:54 AM2
20130330 - BoomBoxDeluxe Visits Mr Photon.jpg 207.2 KB10/24/2018 1:41:55 AM0
20130404 - Motor And PCB Pop.description 258B10/24/2018 1:41:29 AM10
20130404 - Motor And PCB Pop.jpg 208.7 KB10/24/2018 1:41:29 AM2
20130405 - Easy Electrical Project (with overload).description 134B10/24/2018 1:40:51 AM6
20130405 - Easy Electrical Project (with overload).jpg 78.8 KB10/24/2018 1:40:51 AM0
20130407 - Electricians Playtime.description 318B10/24/2018 1:40:11 AM4
20130407 - Electricians Playtime.jpg 169.7 KB10/24/2018 1:40:11 AM0
20130503 - Inside The High Voltage Transformer.description 150B10/24/2018 1:39:57 AM6
20130503 - Inside The High Voltage Transformer.jpg 259.6 KB10/24/2018 1:39:57 AM0
20130504 - Bright Entertainment.description 42B10/24/2018 1:39:03 AM3
20130504 - Bright Entertainment.jpg 202.6 KB10/24/2018 1:39:03 AM0
20130504 - Electronic v Magnetic Ballast.description 29B10/24/2018 1:39:40 AM2
20130504 - Electronic v Magnetic Ballast.jpg 103.6 KB10/24/2018 1:39:41 AM0
20130508 - Industrial Fuses.description 153B10/24/2018 1:38:46 AM6
20130508 - Industrial Fuses.jpg 185.2 KB10/24/2018 1:38:47 AM1
20130510 - Pyroman1990 Visits Photon.description 183B10/24/2018 1:38:14 AM4
20130510 - Pyroman1990 Visits Photon.jpg 246.7 KB10/24/2018 1:38:14 AM0
20130531 - 300kv Transformer Repaired.description 18B10/24/2018 1:37:51 AM5
20130531 - 300kv Transformer Repaired.jpg 182.2 KB10/24/2018 1:37:51 AM1
20130601 - Mercury Arc Rectifier.description 732B10/24/2018 1:37:36 AM8
20130601 - Mercury Arc Rectifier.jpg 105.3 KB10/24/2018 1:37:36 AM0
20130615 - Killer Screwdriver.description 569B10/24/2018 1:37:13 AM4
20130615 - Killer Screwdriver.jpg 205.8 KB10/24/2018 1:37:14 AM0
20130628 - Most Powerful Torch 2.1kW.description 367B10/24/2018 1:37:05 AM6
20130628 - Most Powerful Torch 2.1kW.jpg 212.4 KB10/24/2018 1:37:05 AM0
20130712 - ExperiMental 4D TV Old Style Photon.description 155B10/24/2018 1:36:53 AM4
20130712 - ExperiMental 4D TV Old Style Photon.jpg 178.1 KB10/24/2018 1:36:53 AM1
20131224 - Quick Happy Christmas.description 103B10/24/2018 1:36:40 AM6
20131224 - Quick Happy Christmas.jpg 80.5 KB10/24/2018 1:36:40 AM1
20131230 - Extreme Speaker Test 21' Driver Pop.description 22B10/24/2018 1:36:08 AM3
20131230 - Extreme Speaker Test 21' Driver Pop.jpg 250.9 KB10/24/2018 1:36:09 AM1
20140108 - LED Retrofit.description 510B10/24/2018 1:34:58 AM3
20140108 - LED Retrofit.jpg 180.1 KB10/24/2018 1:34:58 AM0
20140120 - High Voltage Playing Safely.description 287B10/24/2018 1:34:38 AM4
20140120 - High Voltage Playing Safely.jpg 236.9 KB10/24/2018 1:34:38 AM0
20140125 - LED Lamp Blasted With 6000 Volts.description 61B10/24/2018 1:34:14 AM2
20140125 - LED Lamp Blasted With 6000 Volts.jpg 306.4 KB10/24/2018 1:34:14 AM0
20140203 - 8 in 1 Lamp Fun With CrazySparkie63.description 273B10/24/2018 1:33:33 AM6
20140203 - 8 in 1 Lamp Fun With CrazySparkie63.jpg 164.6 KB10/24/2018 1:33:33 AM0
20140304 - Quickie - Electric Go Kart Fun.description 29B10/24/2018 1:33:22 AM4
20140304 - Quickie - Electric Go Kart Fun.jpg 181.1 KB10/24/2018 1:33:22 AM1
20140312 - Exploding Resistors (slow mo).description 131B10/24/2018 1:33:08 AM3
20140312 - Exploding Resistors (slow mo).jpg 23.5 KB10/24/2018 1:33:08 AM0
20140317 - Extreme Speed Hand Sewing Machine.description 33B10/24/2018 1:32:35 AM9
20140317 - Extreme Speed Hand Sewing Machine.jpg 80.1 KB10/24/2018 1:32:35 AM0
20140406 - UK Street Lights Off At Night.description 179B10/24/2018 1:32:20 AM2
20140406 - UK Street Lights Off At Night.jpg 74.2 KB10/24/2018 1:32:21 AM0
20140421 - Photon's Mystery Motorway Drive.description 90B10/24/2018 1:31:33 AM4
20140421 - Photon's Mystery Motorway Drive.jpg 223.3 KB10/24/2018 1:31:34 AM1
20140914 - 20,000 Watt Power Supply.description 832B10/24/2018 1:30:46 AM5
20140914 - 20,000 Watt Power Supply.jpg 194.2 KB10/24/2018 1:30:46 AM1
20140930 - Welcome to Chapter 2.description 121B10/24/2018 1:30:01 AM5
20140930 - Welcome to Chapter 2.jpg 310.7 KB10/24/2018 1:30:02 AM1
20141004 - Photonicinduction's Channel Trailer.description 496B10/24/2018 1:29:46 AM2
20141004 - Photonicinduction's Channel Trailer.jpg 216.0 KB10/24/2018 1:29:47 AM0
20141017 - 10 Second Toaster.description 105B10/24/2018 1:29:21 AM3
20141017 - 10 Second Toaster.jpg 189.3 KB10/24/2018 1:29:21 AM0
20141022 - 10 Second Kettle.description 166B10/24/2018 1:29:07 AM4
20141022 - 10 Second Kettle.jpg 209.0 KB10/24/2018 1:29:07 AM1
20141030 - Extreme Iron Test.description 111B10/24/2018 1:28:50 AM3
20141030 - Extreme Iron Test.jpg 236.8 KB10/24/2018 1:28:50 AM0
20141107 - November 5th Sandwich Toaster + Overload.description 77B10/24/2018 1:28:31 AM6
20141107 - November 5th Sandwich Toaster + Overload.jpg 275.2 KB10/24/2018 1:28:31 AM1
20141107 - Photon Uncut Bonus Bits 1.description 49B10/24/2018 1:27:55 AM4
20141107 - Photon Uncut Bonus Bits 1.jpg 280.1 KB10/24/2018 1:27:55 AM0
20150130 - Easyjumper Starts V8 5L Merc !.description 266B10/24/2018 1:27:24 AM2
20150130 - Easyjumper Starts V8 5L Merc !.jpg 200.7 KB10/24/2018 1:27:24 AM1
20150307 - Dino's Troublesome Tablet Gets Fried.description 86B10/24/2018 1:26:54 AM8
20150307 - Dino's Troublesome Tablet Gets Fried.jpg 194.6 KB10/24/2018 1:26:55 AM0
20150307 - Microwave Overclocked.description 290B10/24/2018 1:26:36 AM4
20150307 - Microwave Overclocked.jpg 85.1 KB10/24/2018 1:26:36 AM0
20150615 - 100 Watt Laser Blasts Phone.description 121B10/24/2018 1:26:21 AM3
20150615 - 100 Watt Laser Blasts Phone.jpg 183.1 KB10/24/2018 1:26:21 AM1
20150621 - Nd YAG Laser Strip Down.description 143B10/24/2018 1:25:49 AM4
20150621 - Nd YAG Laser Strip Down.jpg 189.7 KB10/24/2018 1:25:49 AM0
20150704 - Elements with too Much Voltage.description 111B10/24/2018 1:25:37 AM4
20150704 - Elements with too Much Voltage.jpg 206.7 KB10/24/2018 1:25:37 AM0
20150704 - Lawn Mower Torture.description 57B10/24/2018 1:25:19 AM4
20150704 - Lawn Mower Torture.jpg 246.1 KB10/24/2018 1:25:19 AM1
20150718 - 30kW and 4kW Xenon Lamps Get Tested on a DC Welder.description 176B10/24/2018 1:24:30 AM3
20150718 - 30kW and 4kW Xenon Lamps Get Tested on a DC Welder.jpg 193.6 KB10/24/2018 1:24:30 AM0
20150718 - Xenon Short Arc Lamp Ignition.description 106B10/24/2018 1:24:58 AM5
20150718 - Xenon Short Arc Lamp Ignition.jpg 224.3 KB10/24/2018 1:24:58 AM0
20150929 - Touching The Tesla Coil.description 186B10/24/2018 1:24:08 AM5
20150929 - Touching The Tesla Coil.jpg 224.1 KB10/24/2018 1:24:08 AM1
20151018 - 20,000 Amp Breaker Switch.description 140B10/24/2018 1:23:34 AM6
20151018 - 20,000 Amp Breaker Switch.jpg 324.5 KB10/24/2018 1:23:34 AM1
20151019 - Overclocked Electric Mobility Scooter.description 244B10/24/2018 1:22:52 AM5
20151019 - Overclocked Electric Mobility Scooter.jpg 210.8 KB10/24/2018 1:22:52 AM0
20160523 - Wireless Power Cube.description 67B10/24/2018 1:22:39 AM3
20160523 - Wireless Power Cube.jpg 195.2 KB10/24/2018 1:22:39 AM0
20160530 - Ballistic Gel Vs Electricity.description 74B10/24/2018 1:22:07 AM7
20160530 - Ballistic Gel Vs Electricity.jpg 202.2 KB10/24/2018 1:22:07 AM1
20160612 - Wireless 240v Power Cube Reveal.description 148B10/24/2018 1:21:44 AM3
20160612 - Wireless 240v Power Cube Reveal.jpg 322.9 KB10/24/2018 1:21:45 AM0
20160618 - Until it Pops - Vacuum Cleaner.description 96B10/24/2018 1:21:33 AM6
20160618 - Until it Pops - Vacuum Cleaner.jpg 245.3 KB10/24/2018 1:21:33 AM1
20160624 - Until it Pops - 1000 Watt Light Bulb.description 155B10/24/2018 1:21:20 AM4
20160624 - Until it Pops - 1000 Watt Light Bulb.jpg 187.1 KB10/24/2018 1:21:20 AM1
20160702 - Until it Pops - Mitre Saw.description 72B10/24/2018 1:21:00 AM3
20160702 - Until it Pops - Mitre Saw.jpg 277.5 KB10/24/2018 1:21:00 AM0
20160710 - Boiling water inside a light bulb.description 1.0 KB10/24/2018 1:20:47 AM3
20160710 - Boiling water inside a light bulb.jpg 215.5 KB10/24/2018 1:20:47 AM0
20160717 - 20,000 Watt Light Bulb Test.description 269B10/24/2018 1:20:33 AM5
20160717 - 20,000 Watt Light Bulb Test.jpg 256.7 KB10/24/2018 1:20:33 AM0
20160731 - Steel Chain VS Electrical Current.description 152B10/24/2018 1:20:01 AM2
20160731 - Steel Chain VS Electrical Current.jpg 202.3 KB10/24/2018 1:20:01 AM0
20161028 - Enlightened Pumpkin.description 80B10/24/2018 1:19:47 AM7
20161028 - Enlightened Pumpkin.jpg 100.0 KB10/24/2018 1:19:47 AM0
20161028 - What Happens When A New £5 Note Gets Warm .description 51B10/24/2018 1:19:43 AM3
20161028 - What Happens When A New £5 Note Gets Warm .jpg 104.9 KB10/24/2018 1:19:43 AM0
20170326 - Until it Pops - 2 Bar Electric Fire.description 124B10/24/2018 1:19:25 AM5
20170326 - Until it Pops - 2 Bar Electric Fire.jpg 120.5 KB10/24/2018 1:19:25 AM1
20170402 - Don't Poke a Lithium Polymer Cell.description 72B10/24/2018 1:19:19 AM4
20170402 - Don't Poke a Lithium Polymer Cell.jpg 100.7 KB10/24/2018 1:19:19 AM1
20170409 - Over Powered Car Radiator Fan.description 63B10/24/2018 1:19:00 AM4
20170409 - Over Powered Car Radiator Fan.jpg 141.3 KB10/24/2018 1:19:01 AM1